Showing default

COSMOS 1695, 16143

Orbit data source: Space-Track

COSMOS 1695, 16143 is a payload satellite owned by GUKOS (CIS) in LEO that was launched on Wed, 09 Oct 1985 UTC via a TSIKLON-3 launch vehicle from the Plesetsk Missile And Space Complex (PKMTR). Payloads include a variety of satellites, spacecraft, and rockets equipped with specific instruments for various scientific and technological missions. These include communications satellites like Starlink; space stations such as the ISS; scientific satellites like the Hubble; Earth observation satellites from companies like Planet Labs, Umbra, and HawkEye 360; GPS; miniature CubeSats for education and research; and military/defense satellites.

Loading next visibility...
COSMOS 1695 details
Identifier
16143, 1985-094F
Orbit
LEO
Last TLE update9 hours ago
Origin
Flag of CISGUKOS (CIS)
ManufacturerNPO PM
MissionDefense Communications
Bus & MotorSTRELA-3, Unknown motor
Mass225 kg wet, 225 kg dry
Launch date (UTC)
1985-10-09 (39 years ago)
Launch vehicle
TSIKLON-3
Launch site
Plesetsk Missile And Space Complex (PKMTR)
Object type
Payload
Rocket body
Debris
Shape & HBRCyl, 1.6 m
Radar Cross Section1.257 m², Medium (>0.1 m² and < 1m²)

Expand to show TLE details & history

TLE from 9 hours ago
0 COSMOS 1695
1 16143U 85094F   24361.49270043  .00000005  00000-0 -31672-4 0  9995
2 16143  82.6022 250.6476 0006108 260.4771 273.9189 12.62893944807629
Epoch: 2024-12-26T11:49Z
Definitive object data (Epoch: 2024-12-26T11:49:29.317Z)
Latitude5.54991°
Longitude157.08483°
Altitude1,412.884 km
Speed7.155 km/s
True Right ascension04h 39m 42s
True Declination5° 31' 11"
Sunlit
Object was in full shadow at TLE epoch
Visualization TLE readout
Latitude52.32845°
Longitude147.92575°
Altitude1,422.656 km
Speed7.153 km/s
Apparent Right ascension06h 17m 22s
Apparent Declination14° 23' 49"
Sunlit
Object is in full shadow
Visualization observer readout
Local Sidereal Time20:27:52
Azimuth36.174° NE
Elevation-27.785°
Doppler factor1
Orbital elements
Apogee altitude1,413.097 km
Perigee altitude1,403.585 km
Semi-major axis7,786.478 km
Eccentricity0.0006108
Inclination82.6022°
RAAN250.6476°
Arg. of periapsis260.4771°
True anomaly273.84907°
Mean anomaly273.9189°
Eccentric anomaly273.88398°
Mean motion3.15887 °/min
BSTAR-0.000031672
Orbital period113.96 mins
Loading maneuver chart data...
Loading historical data...
Loading historical data...
Loading historical data...
Loading historical data...
Loading historical data...
Loading historical data...
Loading historical data...

COSMOS 1695 Visibility forecast

Observer location: undefined°, undefined

Span
Click to sort rows by Start time (UTC) header in descending order
Start Az.
Max El. time (UTC)
Max El. Az.
Max El.
End time (UTC)
End Az.
8 mins2024-12-27 02:44:55.998Z31.492° NE2024-12-27 02:48:55.998Z62.218° ENE15.411°2024-12-27 02:52:55.998Z92.846° ESE
15 mins2024-12-27 04:37:55.998Z354.362° N2024-12-27 04:44:55.998Z49.959° ENE44.717°2024-12-27 04:52:55.998Z171.067° S
9 mins2024-12-27 06:34:55.998Z313.954° NW2024-12-27 06:38:55.998Z282.151° WNW17.529°2024-12-27 06:43:55.998Z243.685° WSW
6 mins2024-12-27 15:35:55.998Z97.518° ESE2024-12-27 15:38:55.998Z74.327° E14.278°2024-12-27 15:41:55.998Z51.745° ENE
15 mins2024-12-27 17:24:55.998Z181.66° SSW2024-12-27 17:31:55.998Z136.817° SSE44.717°2024-12-27 17:39:55.998Z9.148° NNE
9 mins2024-12-27 19:23:55.998Z260.372° W2024-12-27 19:27:55.998Z292.788° NW18.427°2024-12-27 19:32:55.998Z333.262° NNW
|